| time (UTC) | temp F | wind direction | speed MPH | gust MPH | rain 1hr in | rain 24hr in | rain mn in | humidity % | barometer mb |
| 20260507002432 | 75 | 0 | 4.0 | 7.0 | 0.00 | 0.00 | 0.00 | 52 | 1018.0 |
| 20260507001933 | 76 | 0 | 3.0 | 9.0 | 0.00 | 0.00 | 0.00 | 52 | 1017.9 |
| 20260507001432 | 76 | 0 | 4.0 | 9.0 | 0.00 | 0.00 | 0.00 | 52 | 1017.8 |
| 20260507000930 | 77 | 0 | 2.0 | 5.0 | 0.00 | 0.00 | 0.00 | 52 | 1018.0 |
| 20260507000431 | 76 | 0 | 2.0 | 7.0 | 0.00 | 0.00 | 0.00 | 54 | 1017.9 |
| 20260506235931 | 76 | 0 | 2.0 | 7.0 | 0.00 | 0.00 | 0.00 | 53 | 1018.0 |
| 20260506235431 | 76 | 0 | 2.0 | 6.0 | 0.00 | 0.00 | 0.00 | 53 | 1017.9 |
| 20260506234931 | 75 | 268 | 3.0 | 9.0 | 0.00 | 0.00 | 0.00 | 54 | 1018.0 |
| 20260506234431 | 75 | 312 | 4.0 | 9.0 | 0.00 | 0.00 | 0.00 | 54 | 1017.9 |
| 20260506233932 | 76 | 295 | 4.0 | 9.0 | 0.00 | 0.00 | 0.00 | 54 | 1017.9 |
| 20260506233431 | 75 | 209 | 5.0 | 9.0 | 0.00 | 0.00 | 0.00 | 54 | 1017.9 |
| 20260506233211 | 75 | 0 | 5.0 | 9.0 | 0.00 | 0.00 | 0.00 | 54 | 1018.0 |
| 20260506232431 | 76 | 0 | 4.0 | 9.0 | 0.00 | 0.00 | 0.00 | 54 | 1018.0 |
| 20260506231945 | 76 | 0 | 4.0 | 10.0 | 0.00 | 0.00 | 0.00 | 53 | 1018.1 |
| 20260506231935 | 76 | 0 | 4.0 | 10.0 | 0.00 | 0.00 | 0.00 | 54 | 1018.0 |
| 20260506230920 | 77 | 0 | 5.0 | 11.0 | 0.00 | 0.00 | 0.00 | 52 | 1018.1 |
| 20260506230409 | 76 | 0 | 3.0 | 11.0 | 0.00 | 0.00 | 0.00 | 54 | 1018.0 |
| 20260506225907 | 76 | 0 | 5.0 | 11.0 | 0.00 | 0.00 | 0.00 | 51 | 1018.0 |
| 20260506225406 | 76 | 0 | 4.0 | 11.0 | 0.00 | 0.00 | 0.00 | 53 | 1018.2 |
| 20260506224905 | 76 | 0 | 5.0 | 10.0 | 0.00 | 0.00 | 0.00 | 52 | 1018.3 |
| 20260506224406 | 77 | 0 | 6.0 | 12.0 | 0.00 | 0.00 | 0.00 | 51 | 1018.3 |
| 20260506223905 | 76 | 0 | 3.0 | 12.0 | 0.00 | 0.00 | 0.00 | 52 | 1018.3 |
| 20260506223403 | 76 | 0 | 7.0 | 10.0 | 0.00 | 0.00 | 0.00 | 50 | 1018.4 |
| 20260506222903 | 77 | 0 | 6.0 | 11.0 | 0.00 | 0.00 | 0.00 | 50 | 1018.3 |
| 20260506222403 | 77 | 0 | 4.0 | 11.0 | 0.00 | 0.00 | 0.00 | 50 | 1018.4 |
| 20260506221903 | 77 | 0 | 7.0 | 10.0 | 0.00 | 0.00 | 0.00 | 50 | 1018.5 |
| 20260506221402 | 77 | 0 | 3.0 | 9.0 | 0.00 | 0.00 | 0.00 | 51 | 1018.5 |
| 20260506220903 | 76 | 0 | 4.0 | 9.0 | 0.00 | 0.00 | 0.00 | 51 | 1018.5 |
| 20260506220404 | 76 | 0 | 6.0 | 10.0 | 0.00 | 0.00 | 0.00 | 51 | 1018.7 |
| 20260506215903 | 76 | 0 | 5.0 | 10.0 | 0.00 | 0.00 | 0.00 | 50 | 1018.7 |
| 20260506215643 | 76 | 0 | 3.0 | 10.0 | 0.00 | 0.00 | 0.00 | 49 | 1018.8 |
| 20260506214902 | 76 | 0 | 4.0 | 10.0 | 0.00 | 0.00 | 0.00 | 52 | 1018.8 |
| 20260506214639 | 76 | 0 | 4.0 | 9.0 | 0.00 | 0.00 | 0.00 | 51 | 1018.8 |
| 20260506213902 | 75 | 0 | 2.0 | 9.0 | 0.00 | 0.00 | 0.00 | 51 | 1018.9 |
| 20260506213402 | 75 | 0 | 6.0 | 9.0 | 0.00 | 0.00 | 0.00 | 52 | 1018.9 |
| 20260506212902 | 75 | 0 | 2.0 | 9.0 | 0.00 | 0.00 | 0.00 | 49 | 1018.9 |
| 20260506212402 | 76 | 0 | 6.0 | 9.0 | 0.00 | 0.00 | 0.00 | 53 | 1019.1 |
| 20260506211903 | 74 | 0 | 2.0 | 10.0 | 0.00 | 0.00 | 0.00 | 54 | 1019.1 |
| 20260506211641 | 74 | 0 | 4.0 | 11.0 | 0.00 | 0.00 | 0.00 | 53 | 1019.2 |
| 20260506210903 | 75 | 0 | 5.0 | 11.0 | 0.00 | 0.00 | 0.00 | 52 | 1019.2 |
| 20260506210640 | 74 | 0 | 6.0 | 10.0 | 0.00 | 0.00 | 0.00 | 52 | 1019.2 |
| 20260506205857 | 74 | 0 | 5.0 | 10.0 | 0.00 | 0.00 | 0.00 | 53 | 1019.3 |
| 20260506205638 | 74 | 0 | 1.0 | 10.0 | 0.00 | 0.00 | 0.00 | 54 | 1019.3 |
| 20260506204916 | 74 | 0 | 3.0 | 11.0 | 0.00 | 0.00 | 0.00 | 53 | 1019.4 |
| 20260506204907 | 74 | 0 | 4.0 | 11.0 | 0.00 | 0.00 | 0.00 | 54 | 1019.3 |
| 20260506203855 | 74 | 0 | 4.0 | 11.0 | 0.00 | 0.00 | 0.00 | 55 | 1019.6 |
| 20260506203636 | 73 | 0 | 1.0 | 11.0 | 0.00 | 0.00 | 0.00 | 56 | 1019.5 |
| 20260506202854 | 73 | 0 | 4.0 | 9.0 | 0.00 | 0.00 | 0.00 | 56 | 1019.5 |
| 20260506202355 | 72 | 0 | 4.0 | 9.0 | 0.00 | 0.00 | 0.00 | 56 | 1019.6 |
| 20260506201854 | 72 | 0 | 2.0 | 7.0 | 0.00 | 0.00 | 0.00 | 57 | 1019.7 |
| 20260506201353 | 72 | 0 | 4.0 | 7.0 | 0.00 | 0.00 | 0.00 | 58 | 1019.8 |
| 20260506201133 | 71 | 0 | 2.0 | 7.0 | 0.00 | 0.00 | 0.00 | 56 | 1019.8 |
| 20260506200353 | 71 | 0 | 1.0 | 7.0 | 0.00 | 0.00 | 0.00 | 56 | 1019.8 |
| 20260506195853 | 71 | 0 | 4.0 | 10.0 | 0.00 | 0.00 | 0.00 | 59 | 1019.9 |
| 20260506195354 | 71 | 0 | 5.0 | 10.0 | 0.00 | 0.00 | 0.00 | 58 | 1019.9 |
| 20260506194852 | 71 | 0 | 3.0 | 6.0 | 0.00 | 0.00 | 0.00 | 60 | 1020.0 |
| 20260506194352 | 70 | 0 | 3.0 | 9.0 | 0.00 | 0.00 | 0.00 | 60 | 1020.1 |
| 20260506193852 | 69 | 0 | 4.0 | 9.0 | 0.00 | 0.00 | 0.00 | 61 | 1020.1 |
| 20260506193632 | 69 | 0 | 3.0 | 7.0 | 0.00 | 0.00 | 0.00 | 60 | 1020.1 |
| 20260506192852 | 69 | 0 | 3.0 | 7.0 | 0.00 | 0.00 | 0.00 | 62 | 1020.2 |
| 20260506192352 | 68 | 0 | 5.0 | 7.0 | 0.00 | 0.00 | 0.00 | 64 | 1020.3 |
| 20260506191915 | 68 | 0 | 3.0 | 9.0 | 0.00 | 0.00 | 0.00 | 64 | 1020.4 |
| 20260506191907 | 68 | 0 | 3.0 | 9.0 | 0.00 | 0.00 | 0.00 | 63 | 1020.4 |
| 20260506190852 | 68 | 0 | 6.0 | 10.0 | 0.00 | 0.00 | 0.00 | 64 | 1020.4 |
| 20260506190351 | 68 | 0 | 4.0 | 10.0 | 0.00 | 0.00 | 0.00 | 63 | 1020.5 |
| 20260506185852 | 68 | 0 | 4.0 | 10.0 | 0.00 | 0.00 | 0.00 | 66 | 1020.5 |
| 20260506185630 | 67 | 0 | 5.0 | 7.0 | 0.00 | 0.00 | 0.00 | 64 | 1020.4 |
| 20260506184851 | 67 | 0 | 4.0 | 7.0 | 0.00 | 0.00 | 0.00 | 65 | 1020.4 |
| 20260506184351 | 67 | 0 | 3.0 | 10.0 | 0.00 | 0.00 | 0.00 | 65 | 1020.5 |
| 20260506183852 | 66 | 0 | 4.0 | 10.0 | 0.00 | 0.00 | 0.00 | 65 | 1020.4 |
| 20260506183351 | 66 | 0 | 3.0 | 9.0 | 0.00 | 0.00 | 0.00 | 64 | 1020.5 |
| 20260506182851 | 66 | 0 | 3.0 | 5.0 | 0.00 | 0.00 | 0.00 | 65 | 1020.6 |
| 20260506182351 | 65 | 0 | 3.0 | 5.0 | 0.00 | 0.00 | 0.00 | 67 | 1020.5 |
| 20260506181851 | 65 | 0 | 2.0 | 6.0 | 0.00 | 0.00 | 0.00 | 65 | 1020.6 |
| 20260506181414 | 64 | 0 | 2.0 | 5.0 | 0.00 | 0.00 | 0.00 | 67 | 1020.6 |
| 20260506181406 | 65 | 0 | 3.0 | 6.0 | 0.00 | 0.00 | 0.00 | 67 | 1020.6 |
| 20260506180350 | 64 | 0 | 3.0 | 5.0 | 0.00 | 0.00 | 0.00 | 67 | 1020.7 |
| 20260506175851 | 63 | 0 | 2.0 | 5.0 | 0.00 | 0.00 | 0.00 | 68 | 1020.6 |
| 20260506175350 | 63 | 0 | 2.0 | 5.0 | 0.00 | 0.00 | 0.00 | 69 | 1020.6 |
| 20260506174851 | 63 | 0 | 1.0 | 5.0 | 0.00 | 0.00 | 0.00 | 69 | 1020.6 |
| 20260506174414 | 62 | 0 | 3.0 | 5.0 | 0.00 | 0.00 | 0.00 | 70 | 1020.8 |
| 20260506174406 | 62 | 0 | 2.0 | 5.0 | 0.00 | 0.00 | 0.00 | 69 | 1020.6 |
| 20260506173350 | 62 | 0 | 0.0 | 5.0 | 0.00 | 0.00 | 0.00 | 70 | 1020.8 |
| 20260506172849 | 62 | 0 | 3.0 | 5.0 | 0.00 | 0.00 | 0.00 | 71 | 1020.8 |
| 20260506172351 | 62 | 0 | 1.0 | 5.0 | 0.00 | 0.00 | 0.00 | 71 | 1020.8 |
| 20260506172128 | 61 | 0 | 2.0 | 4.0 | 0.00 | 0.00 | 0.00 | 71 | 1020.8 |
| 20260506171349 | 61 | 0 | 2.0 | 5.0 | 0.00 | 0.00 | 0.00 | 71 | 1020.8 |
| 20260506170848 | 61 | 0 | 2.0 | 5.0 | 0.00 | 0.00 | 0.00 | 72 | 1020.8 |
| 20260506170349 | 61 | 0 | 1.0 | 4.0 | 0.00 | 0.00 | 0.00 | 72 | 1020.9 |
| 20260506165849 | 61 | 0 | 1.0 | 4.0 | 0.00 | 0.00 | 0.00 | 72 | 1020.8 |
| 20260506165349 | 60 | 0 | 0.0 | 4.0 | 0.00 | 0.00 | 0.00 | 72 | 1020.8 |
| 20260506164849 | 60 | 0 | 2.0 | 4.0 | 0.00 | 0.00 | 0.00 | 73 | 1020.9 |
| 20260506164349 | 60 | 0 | 1.0 | 2.0 | 0.00 | 0.00 | 0.00 | 73 | 1020.9 |
| 20260506163847 | 60 | 0 | 1.0 | 3.0 | 0.00 | 0.00 | 0.00 | 73 | 1020.9 |
| 20260506163348 | 60 | 0 | 0.0 | 3.0 | 0.00 | 0.00 | 0.00 | 74 | 1020.9 |
| 20260506163130 | 60 | 0 | 0.0 | 2.0 | 0.00 | 0.00 | 0.00 | 74 | 1020.8 |
| 20260506162627 | 59 | 0 | 1.0 | 2.0 | 0.00 | 0.00 | 0.00 | 74 | 1020.8 |
| 20260506161847 | 59 | 0 | 0.0 | 2.0 | 0.00 | 0.00 | 0.00 | 74 | 1020.8 |
| 20260506161413 | 59 | 0 | 0.0 | 1.0 | 0.00 | 0.00 | 0.00 | 76 | 1020.9 |
| 20260506161405 | 59 | 0 | 1.0 | 2.0 | 0.00 | 0.00 | 0.00 | 75 | 1020.9 |
| 20260506160347 | 59 | 0 | 0.0 | 2.0 | 0.00 | 0.00 | 0.00 | 77 | 1020.9 |
| 20260506155848 | 59 | 0 | 0.0 | 2.0 | 0.00 | 0.00 | 0.00 | 77 | 1020.9 |
| 20260506155347 | 59 | 0 | 0.0 | 1.0 | 0.00 | 0.00 | 0.00 | 77 | 1020.9 |
| 20260506154846 | 58 | 0 | 0.0 | 1.0 | 0.00 | 0.00 | 0.00 | 78 | 1020.9 |
| 20260506154346 | 58 | 0 | 0.0 | 2.0 | 0.00 | 0.00 | 0.00 | 78 | 1020.8 |
| 20260506153846 | 58 | 0 | 0.0 | 2.0 | 0.00 | 0.00 | 0.00 | 78 | 1020.8 |
| 20260506153347 | 58 | 0 | 0.0 | 1.0 | 0.00 | 0.00 | 0.00 | 79 | 1020.8 |
| 20260506152848 | 58 | 0 | 0.0 | 2.0 | 0.00 | 0.00 | 0.00 | 79 | 1020.8 |
| 20260506152412 | 57 | 0 | 0.0 | 2.0 | 0.00 | 0.00 | 0.00 | 80 | 1020.7 |
| 20260506152402 | 57 | 0 | 1.0 | 2.0 | 0.00 | 0.00 | 0.00 | 80 | 1020.7 |
| 20260506151346 | 57 | 0 | 0.0 | 2.0 | 0.00 | 0.00 | 0.00 | 81 | 1020.8 |
| 20260506150846 | 57 | 0 | 0.0 | 3.0 | 0.00 | 0.00 | 0.00 | 81 | 1020.8 |
| 20260506150346 | 56 | 0 | 2.0 | 3.0 | 0.00 | 0.00 | 0.00 | 81 | 1020.8 |
| 20260506145846 | 56 | 0 | 1.0 | 2.0 | 0.00 | 0.00 | 0.00 | 82 | 1020.8 |
| 20260506145345 | 56 | 0 | 0.0 | 3.0 | 0.00 | 0.00 | 0.00 | 82 | 1020.8 |
| 20260506144845 | 56 | 0 | 0.0 | 3.0 | 0.00 | 0.00 | 0.00 | 82 | 1020.7 |
| 20260506144347 | 56 | 0 | 1.0 | 2.0 | 0.00 | 0.00 | 0.00 | 82 | 1020.7 |
| 20260506143845 | 56 | 0 | 1.0 | 2.0 | 0.00 | 0.00 | 0.00 | 83 | 1020.7 |
| 20260506143345 | 56 | 0 | 0.0 | 0.0 | 0.00 | 0.00 | 0.00 | 83 | 1020.7 |
| 20260506142845 | 56 | 0 | 0.0 | 1.0 | 0.00 | 0.00 | 0.00 | 83 | 1020.7 |
| 20260506142344 | 56 | 0 | 0.0 | 2.0 | 0.00 | 0.00 | 0.00 | 83 | 1020.7 |
| 20260506141844 | 56 | 0 | 0.0 | 2.0 | 0.00 | 0.00 | 0.00 | 83 | 1020.6 |
| 20260506141345 | 56 | 0 | 0.0 | 1.0 | 0.00 | 0.00 | 0.00 | 84 | 1020.5 |
| 20260506140844 | 55 | 0 | 0.0 | 3.0 | 0.00 | 0.00 | 0.00 | 84 | 1020.5 |
| 20260506140344 | 55 | 0 | 1.0 | 3.0 | 0.00 | 0.00 | 0.00 | 84 | 1020.4 |
| 20260506135849 | 55 | 0 | 0.0 | 2.0 | 0.00 | 0.00 | 0.00 | 84 | 1020.3 |
| 20260506135623 | 55 | 0 | 0.0 | 2.0 | 0.00 | 0.00 | 0.00 | 84 | 1020.3 |
| 20260506134843 | 55 | 0 | 0.0 | 2.0 | 0.00 | 0.00 | 0.00 | 84 | 1020.2 |
| 20260506134343 | 54 | 0 | 1.0 | 2.0 | 0.00 | 0.00 | 0.00 | 85 | 1020.2 |
| 20260506133844 | 54 | 0 | 1.0 | 2.0 | 0.00 | 0.00 | 0.00 | 85 | 1020.1 |
| 20260506133343 | 54 | 0 | 0.0 | 1.0 | 0.00 | 0.00 | 0.00 | 85 | 1020.1 |
| 20260506132844 | 54 | 0 | 0.0 | 0.0 | 0.00 | 0.00 | 0.00 | 85 | 1019.9 |
| 20260506132343 | 53 | 0 | 0.0 | 0.0 | 0.00 | 0.00 | 0.00 | 85 | 1019.8 |
| 20260506131843 | 53 | 0 | 0.0 | 0.0 | 0.00 | 0.00 | 0.00 | 85 | 1019.8 |
| 20260506131344 | 53 | 0 | 0.0 | 0.0 | 0.00 | 0.00 | 0.00 | 85 | 1019.9 |
| 20260506130843 | 53 | 0 | 0.0 | 0.0 | 0.00 | 0.00 | 0.00 | 85 | 1019.9 |
| 20260506130343 | 53 | 0 | 0.0 | 0.0 | 0.00 | 0.00 | 0.00 | 85 | 1019.8 |
| 20260506125843 | 53 | 0 | 0.0 | 0.0 | 0.00 | 0.00 | 0.00 | 85 | 1019.9 |
| 20260506125342 | 53 | 0 | 0.0 | 0.0 | 0.00 | 0.00 | 0.00 | 85 | 1019.8 |
| 20260506124843 | 53 | 0 | 0.0 | 0.0 | 0.00 | 0.00 | 0.00 | 85 | 1019.8 |
| 20260506124343 | 53 | 0 | 0.0 | 2.0 | 0.00 | 0.00 | 0.00 | 85 | 1019.8 |
| 20260506123840 | 53 | 0 | 0.0 | 2.0 | 0.00 | 0.00 | 0.00 | 85 | 1019.7 |
| 20260506123342 | 52 | 0 | 1.0 | 2.0 | 0.00 | 0.00 | 0.00 | 85 | 1019.7 |
| 20260506122842 | 52 | 0 | 1.0 | 2.0 | 0.00 | 0.00 | 0.00 | 85 | 1019.7 |
| 20260506122406 | 51 | 0 | 0.0 | 0.0 | 0.00 | 0.00 | 0.00 | 85 | 1019.7 |
| 20260506122357 | 52 | 0 | 0.0 | 1.0 | 0.00 | 0.00 | 0.00 | 85 | 1019.7 |
| 20260506121342 | 51 | 0 | 0.0 | 1.0 | 0.00 | 0.00 | 0.00 | 84 | 1019.7 |
| 20260506120906 | 51 | 0 | 0.0 | 0.0 | 0.00 | 0.00 | 0.00 | 84 | 1019.6 |
| 20260506120857 | 51 | 0 | 0.0 | 1.0 | 0.00 | 0.00 | 0.00 | 84 | 1019.7 |
| 20260506120120 | 51 | 0 | 0.0 | 0.0 | 0.00 | 0.00 | 0.00 | 84 | 1019.6 |
| 20260506115340 | 51 | 0 | 0.0 | 1.0 | 0.00 | 0.00 | 0.00 | 84 | 1019.6 |
| 20260506114840 | 52 | 0 | 0.0 | 1.0 | 0.00 | 0.00 | 0.00 | 84 | 1019.5 |
| 20260506114341 | 52 | 0 | 0.0 | 1.0 | 0.00 | 0.01 | 0.00 | 84 | 1019.4 |
| 20260506114119 | 52 | 0 | 0.0 | 2.0 | 0.00 | 0.01 | 0.00 | 83 | 1019.3 |
| 20260506113340 | 52 | 0 | 1.0 | 2.0 | 0.00 | 0.01 | 0.00 | 83 | 1019.4 |
| 20260506112842 | 52 | 0 | 0.0 | 0.0 | 0.00 | 0.01 | 0.00 | 83 | 1019.3 |
| 20260506112341 | 52 | 0 | 0.0 | 2.0 | 0.00 | 0.01 | 0.00 | 83 | 1019.3 |
| 20260506111840 | 52 | 0 | 0.0 | 2.0 | 0.00 | 0.01 | 0.00 | 83 | 1019.4 |
| 20260506111340 | 52 | 0 | 1.0 | 2.0 | 0.00 | 0.01 | 0.00 | 83 | 1019.4 |
| 20260506110840 | 53 | 0 | 0.0 | 1.0 | 0.00 | 0.01 | 0.00 | 82 | 1019.3 |
| 20260506110340 | 53 | 0 | 0.0 | 1.0 | 0.00 | 0.01 | 0.00 | 82 | 1019.2 |
| 20260506105839 | 53 | 0 | 0.0 | 1.0 | 0.00 | 0.01 | 0.00 | 82 | 1019.2 |
| 20260506105340 | 53 | 0 | 0.0 | 0.0 | 0.00 | 0.01 | 0.00 | 82 | 1019.1 |
| 20260506104839 | 53 | 0 | 0.0 | 1.0 | 0.00 | 0.01 | 0.00 | 82 | 1019.1 |
| 20260506104339 | 53 | 0 | 0.0 | 3.0 | 0.00 | 0.01 | 0.00 | 82 | 1019.1 |
| 20260506103837 | 53 | 0 | 1.0 | 3.0 | 0.00 | 0.01 | 0.00 | 81 | 1019.1 |
| 20260506103338 | 54 | 0 | 2.0 | 3.0 | 0.00 | 0.01 | 0.00 | 81 | 1019.1 |
| 20260506102838 | 54 | 0 | 0.0 | 0.0 | 0.00 | 0.01 | 0.00 | 81 | 1019.1 |
| 20260506102339 | 55 | 0 | 0.0 | 1.0 | 0.00 | 0.01 | 0.00 | 80 | 1019.1 |
| 20260506101839 | 55 | 0 | 0.0 | 1.0 | 0.00 | 0.01 | 0.00 | 80 | 1019.1 |
| 20260506101404 | 56 | 0 | 0.0 | 1.0 | 0.00 | 0.01 | 0.00 | 80 | 1019.1 |
| 20260506101354 | 55 | 0 | 0.0 | 1.0 | 0.00 | 0.01 | 0.00 | 80 | 1019.0 |
| 20260506100339 | 56 | 0 | 0.0 | 1.0 | 0.00 | 0.01 | 0.00 | 79 | 1019.1 |
| 20260506095838 | 56 | 0 | 0.0 | 1.0 | 0.00 | 0.01 | 0.00 | 79 | 1019.1 |
| 20260506095618 | 56 | 0 | 0.0 | 1.0 | 0.00 | 0.01 | 0.00 | 79 | 1019.1 |
| 20260506094839 | 57 | 0 | 0.0 | 1.0 | 0.00 | 0.01 | 0.00 | 78 | 1019.1 |
| 20260506094337 | 57 | 0 | 0.0 | 0.0 | 0.00 | 0.01 | 0.00 | 78 | 1019.1 |
| 20260506093838 | 57 | 0 | 0.0 | 0.0 | 0.00 | 0.01 | 0.00 | 78 | 1019.1 |
| 20260506093338 | 57 | 0 | 0.0 | 0.0 | 0.00 | 0.01 | 0.00 | 78 | 1019.1 |
| 20260506092839 | 57 | 0 | 0.0 | 1.0 | 0.00 | 0.01 | 0.00 | 78 | 1019.0 |
| 20260506092337 | 57 | 0 | 0.0 | 1.0 | 0.00 | 0.01 | 0.00 | 78 | 1019.1 |
| 20260506091837 | 57 | 0 | 0.0 | 1.0 | 0.00 | 0.01 | 0.00 | 78 | 1019.0 |
| 20260506091337 | 57 | 0 | 0.0 | 1.0 | 0.00 | 0.01 | 0.00 | 78 | 1019.1 |
| 20260506090837 | 57 | 0 | 0.0 | 0.0 | 0.00 | 0.01 | 0.00 | 78 | 1019.0 |
| 20260506090337 | 57 | 0 | 0.0 | 0.0 | 0.00 | 0.01 | 0.00 | 78 | 1019.0 |
| 20260506085838 | 57 | 0 | 0.0 | 0.0 | 0.00 | 0.01 | 0.00 | 78 | 1018.9 |
| 20260506085337 | 57 | 0 | 0.0 | 0.0 | 0.00 | 0.01 | 0.00 | 78 | 1019.0 |
| 20260506084837 | 57 | 0 | 0.0 | 0.0 | 0.00 | 0.01 | 0.00 | 78 | 1019.0 |
| 20260506084336 | 57 | 0 | 0.0 | 1.0 | 0.00 | 0.01 | 0.00 | 78 | 1019.0 |
| 20260506083833 | 57 | 0 | 0.0 | 1.0 | 0.00 | 0.01 | 0.00 | 78 | 1019.0 |
| 20260506083336 | 57 | 0 | 0.0 | 1.0 | 0.00 | 0.01 | 0.00 | 77 | 1019.1 |
| 20260506082836 | 57 | 0 | 0.0 | 1.0 | 0.00 | 0.01 | 0.00 | 77 | 1019.1 |
| 20260506082617 | 57 | 0 | 0.0 | 1.0 | 0.00 | 0.01 | 0.00 | 77 | 1019.1 |
| 20260506082113 | 57 | 0 | 0.0 | 1.0 | 0.00 | 0.01 | 0.00 | 77 | 1019.1 |
| 20260506081335 | 57 | 0 | 0.0 | 0.0 | 0.00 | 0.01 | 0.00 | 77 | 1019.1 |
| 20260506080837 | 57 | 0 | 0.0 | 0.0 | 0.00 | 0.01 | 0.00 | 76 | 1019.0 |
| 20260506080336 | 57 | 0 | 0.0 | 1.0 | 0.00 | 0.01 | 0.00 | 76 | 1019.1 |
| 20260506073334 | 57 | 0 | 0.0 | 1.0 | 0.00 | 0.01 | 0.00 | 77 | 1018.8 |
| 20260506072835 | 57 | 0 | 0.0 | 1.0 | 0.00 | 0.01 | 0.00 | 77 | 1018.9 |
| 20260506072334 | 57 | 0 | 0.0 | 1.0 | 0.00 | 0.01 | 0.00 | 76 | 1018.9 |
| 20260506071834 | 57 | 0 | 0.0 | 0.0 | 0.00 | 0.01 | 0.00 | 76 | 1018.8 |
| 20260506071333 | 57 | 0 | 0.0 | 0.0 | 0.00 | 0.01 | 0.00 | 76 | 1018.7 |
| 20260506070835 | 57 | 0 | 0.0 | 1.0 | 0.00 | 0.01 | 0.00 | 76 | 1018.7 |
| 20260506070334 | 57 | 0 | 0.0 | 1.0 | 0.00 | 0.01 | 0.00 | 76 | 1018.7 |
| 20260506062331 | 58 | 0 | 0.0 | 1.0 | 0.00 | 0.01 | 0.01 | 74 | 1018.5 |
| 20260506061832 | 58 | 0 | 0.0 | 0.0 | 0.00 | 0.01 | 0.01 | 74 | 1018.5 |
| 20260506061331 | 58 | 0 | 0.0 | 0.0 | 0.00 | 0.01 | 0.01 | 74 | 1018.4 |
| 20260506060831 | 58 | 0 | 0.0 | 0.0 | 0.00 | 0.01 | 0.01 | 74 | 1018.4 |
| 20260506060331 | 58 | 0 | 0.0 | 0.0 | 0.00 | 0.01 | 0.01 | 74 | 1018.3 |
| 20260506051331 | 58 | 0 | 1.0 | 2.0 | 0.00 | 0.01 | 0.01 | 72 | 1018.1 |
| 20260506051113 | 58 | 0 | 0.0 | 2.0 | 0.00 | 0.01 | 0.01 | 72 | 1018.0 |
| 20260506050331 | 58 | 0 | 1.0 | 3.0 | 0.00 | 0.01 | 0.01 | 72 | 1017.9 |
| 20260506044831 | 59 | 0 | 1.0 | 2.0 | 0.00 | 0.01 | 0.01 | 71 | 1017.8 |
| 20260506044330 | 59 | 0 | 1.0 | 2.0 | 0.00 | 0.01 | 0.01 | 71 | 1017.7 |
| 20260506043829 | 59 | 0 | 0.0 | 1.0 | 0.00 | 0.01 | 0.01 | 71 | 1017.7 |
| 20260506043613 | 59 | 0 | 0.0 | 1.0 | 0.00 | 0.01 | 0.01 | 71 | 1017.8 |
| 20260506043109 | 59 | 0 | 0.0 | 1.0 | 0.00 | 0.01 | 0.01 | 71 | 1017.7 |
| 20260506042328 | 59 | 0 | 0.0 | 1.0 | 0.00 | 0.01 | 0.01 | 71 | 1017.5 |
| 20260506041829 | 59 | 0 | 0.0 | 2.0 | 0.00 | 0.01 | 0.01 | 71 | 1017.6 |
| 20260506041328 | 59 | 0 | 0.0 | 2.0 | 0.00 | 0.01 | 0.01 | 71 | 1017.5 |
| 20260506040828 | 59 | 0 | 1.0 | 3.0 | 0.00 | 0.01 | 0.01 | 71 | 1017.3 |
| 20260506040351 | 59 | 0 | 0.0 | 3.0 | 0.00 | 0.01 | 0.01 | 71 | 1017.2 |
| 20260506040341 | 59 | 0 | 2.0 | 3.0 | 0.00 | 0.01 | 0.01 | 71 | 1017.3 |
| 20260506035327 | 59 | 0 | 1.0 | 3.0 | 0.00 | 0.01 | 0.01 | 71 | 1017.2 |
| 20260506035106 | 59 | 0 | 0.0 | 2.0 | 0.00 | 0.01 | 0.01 | 71 | 1017.2 |
| 20260506034329 | 59 | 0 | 0.0 | 2.0 | 0.00 | 0.01 | 0.01 | 71 | 1017.1 |
| 20260506033830 | 59 | 0 | 0.0 | 5.0 | 0.00 | 0.01 | 0.01 | 71 | 1017.0 |
| 20260506033330 | 59 | 0 | 1.0 | 7.0 | 0.00 | 0.01 | 0.01 | 71 | 1016.9 |
| 20260506033106 | 59 | 0 | 3.0 | 7.0 | 0.00 | 0.01 | 0.01 | 71 | 1016.8 |
| 20260506032327 | 59 | 0 | 1.0 | 4.0 | 0.00 | 0.01 | 0.01 | 71 | 1016.7 |
| 20260506031828 | 60 | 0 | 2.0 | 4.0 | 0.00 | 0.01 | 0.01 | 71 | 1016.7 |
| 20260506031328 | 60 | 0 | 2.0 | 5.0 | 0.00 | 0.01 | 0.01 | 70 | 1016.7 |
| 20260506031105 | 60 | 0 | 2.0 | 5.0 | 0.00 | 0.01 | 0.01 | 70 | 1016.7 |
| 20260506030328 | 60 | 0 | 2.0 | 4.0 | 0.00 | 0.01 | 0.01 | 70 | 1016.6 |
| 20260506025827 | 60 | 0 | 0.0 | 5.0 | 0.00 | 0.01 | 0.01 | 70 | 1016.5 |
| 20260506025329 | 61 | 0 | 1.0 | 5.0 | 0.00 | 0.01 | 0.01 | 69 | 1016.5 |
| 20260506024828 | 61 | 0 | 2.0 | 4.0 | 0.00 | 0.01 | 0.01 | 68 | 1016.3 |
| 20260506024329 | 61 | 0 | 0.0 | 2.0 | 0.00 | 0.01 | 0.01 | 68 | 1016.2 |
| 20260506023827 | 61 | 0 | 1.0 | 2.0 | 0.00 | 0.01 | 0.01 | 68 | 1016.2 |
| 20260506023327 | 61 | 0 | 1.0 | 4.0 | 0.00 | 0.01 | 0.01 | 68 | 1016.0 |
| 20260506022827 | 61 | 0 | 1.0 | 4.0 | 0.00 | 0.01 | 0.01 | 68 | 1016.0 |
| 20260506022327 | 62 | 0 | 2.0 | 3.0 | 0.00 | 0.01 | 0.01 | 67 | 1016.0 |
| 20260506021826 | 61 | 0 | 2.0 | 4.0 | 0.00 | 0.01 | 0.01 | 67 | 1016.0 |
| 20260506021327 | 61 | 0 | 3.0 | 5.0 | 0.00 | 0.01 | 0.01 | 67 | 1016.1 |
| 20260506020827 | 62 | 0 | 2.0 | 5.0 | 0.00 | 0.01 | 0.01 | 66 | 1016.0 |
| 20260506020606 | 62 | 0 | 1.0 | 5.0 | 0.00 | 0.01 | 0.01 | 66 | 1016.0 |
| 20260506015826 | 62 | 0 | 2.0 | 3.0 | 0.00 | 0.01 | 0.01 | 66 | 1016.0 |
| 20260506015327 | 62 | 0 | 1.0 | 6.0 | 0.00 | 0.01 | 0.01 | 66 | 1016.0 |
| 20260506015132 | 62 | 0 | 2.0 | 5.0 | 0.00 | 0.01 | 0.01 | 66 | 1016.0 |
| 20260506015127 | 62 | 0 | 2.0 | 6.0 | 0.00 | 0.01 | 0.01 | 66 | 1015.9 |
| 20260506013824 | 62 | 0 | 3.0 | 6.0 | 0.00 | 0.01 | 0.01 | 65 | 1016.0 |
| 20260506013324 | 62 | 0 | 2.0 | 6.0 | 0.00 | 0.01 | 0.01 | 65 | 1016.0 |
| 20260506012824 | 62 | 0 | 3.0 | 6.0 | 0.00 | 0.01 | 0.01 | 65 | 1016.0 |
| 20260506012325 | 62 | 0 | 2.0 | 6.0 | 0.00 | 0.01 | 0.01 | 64 | 1016.0 |
| 20260506011824 | 63 | 0 | 2.0 | 5.0 | 0.00 | 0.01 | 0.01 | 65 | 1016.0 |
| 20260506011324 | 63 | 0 | 2.0 | 5.0 | 0.00 | 0.01 | 0.01 | 65 | 1016.0 |
| 20260506010824 | 63 | 0 | 3.0 | 6.0 | 0.00 | 0.01 | 0.01 | 65 | 1015.9 |
| 20260506010324 | 62 | 0 | 2.0 | 6.0 | 0.00 | 0.01 | 0.01 | 66 | 1015.9 |
| 20260506005825 | 62 | 0 | 3.0 | 5.0 | 0.00 | 0.01 | 0.01 | 66 | 1015.9 |
| 20260506005603 | 62 | 0 | 2.0 | 4.0 | 0.00 | 0.01 | 0.01 | 66 | 1015.9 |
| 20260506004824 | 62 | 0 | 2.0 | 7.0 | 0.00 | 0.01 | 0.01 | 66 | 1015.9 |
| 20260506004324 | 62 | 0 | 3.0 | 9.0 | 0.00 | 0.01 | 0.01 | 66 | 1016.0 |
| 20260506003826 | 62 | 0 | 1.0 | 10.0 | 0.00 | 0.01 | 0.01 | 67 | 1015.9 |
| 20260506003325 | 62 | 0 | 5.0 | 10.0 | 0.00 | 0.01 | 0.01 | 66 | 1015.8 |
| 20260506002824 | 62 | 0 | 3.0 | 11.0 | 0.00 | 0.01 | 0.01 | 66 | 1015.8 |